Time,TemperatureF,DewpointF,PressureIn,WindDirection,WindDirectionDegrees,WindSpeedMPH,WindSpeedGustMPH,Humidity,HourlyPrecipIn,Conditions,Clouds,dailyrainin,SolarRadiationWatts/m^2,SoftwareType,DateUTC
2013-03-02 00:02:00,52.4,38.0,29.98,NNW,334,2.0,12.0,58,0.00,,,0.00,0,weatherlink.com 1.10,2013-03-02 05:02:00,
2013-03-02 00:16:00,52.0,37.0,29.97,NW,309,0.0,11.0,57,0.00,,,0.00,0,weatherlink.com 1.10,2013-03-02 05:16:00,
2013-03-02 00:31:00,51.7,37.0,29.98,West,271,4.0,11.0,58,0.00,,,0.00,0,weatherlink.com 1.10,2013-03-02 05:31:00,
2013-03-02 00:46:00,51.7,38.0,29.98,West,261,0.0,7.0,59,0.00,,,0.00,0,weatherlink.com 1.10,2013-03-02 05:46:00,
2013-03-02 01:01:00,51.8,38.0,29.99,NNE,26,1.0,13.0,60,0.00,,,0.00,0,weatherlink.com 1.10,2013-03-02 06:01:00,
2013-03-02 01:16:00,51.5,37.0,29.98,NW,315,1.0,7.0,59,0.00,,,0.00,0,weatherlink.com 1.10,2013-03-02 06:16:00,
2013-03-02 01:31:00,51.4,37.0,29.98,NW,325,5.0,8.0,58,0.00,,,0.00,0,weatherlink.com 1.10,2013-03-02 06:31:00,
2013-03-02 01:46:00,51.2,37.0,29.98,West,281,2.0,8.0,58,0.00,,,0.00,0,weatherlink.com 1.10,2013-03-02 06:46:00,
2013-03-02 02:01:00,51.0,36.0,29.98,North,360,3.0,10.0,57,0.00,,,0.00,0,weatherlink.com 1.10,2013-03-02 07:01:00,
2013-03-02 02:16:00,50.8,36.0,29.98,WSW,251,3.0,12.0,57,0.00,,,0.00,0,weatherlink.com 1.10,2013-03-02 07:16:00,
2013-03-02 02:31:00,50.5,36.0,29.98,West,267,0.0,10.0,58,0.00,,,0.00,0,weatherlink.com 1.10,2013-03-02 07:31:00,
2013-03-02 02:46:00,50.2,36.0,29.99,NNE,22,4.0,6.0,59,0.00,,,0.00,0,weatherlink.com 1.10,2013-03-02 07:46:00,
2013-03-02 03:01:00,49.7,36.0,29.99,North,360,2.0,9.0,59,0.00,,,0.00,0,weatherlink.com 1.10,2013-03-02 08:01:00,
2013-03-02 03:16:00,49.2,36.0,29.98,NNW,332,1.0,4.0,60,0.00,,,0.00,0,weatherlink.com 1.10,2013-03-02 08:16:00,
2013-03-02 03:31:00,49.0,36.0,29.99,ENE,61,0.0,5.0,61,0.00,,,0.00,0,weatherlink.com 1.10,2013-03-02 08:31:00,
2013-03-02 03:46:00,48.8,36.0,29.99,NNW,347,1.0,5.0,61,0.00,,,0.00,0,weatherlink.com 1.10,2013-03-02 08:46:00,
2013-03-02 04:01:00,48.8,36.0,29.99,NE,48,0.0,4.0,61,0.00,,,0.00,0,weatherlink.com 1.10,2013-03-02 09:01:00,
2013-03-02 04:16:00,48.7,36.0,29.99,North,349,0.0,7.0,61,0.00,,,0.00,0,weatherlink.com 1.10,2013-03-02 09:16:00,
2013-03-02 04:31:00,48.7,35.0,29.99,North,355,2.0,4.0,60,0.00,,,0.00,0,weatherlink.com 1.10,2013-03-02 09:31:00,
2013-03-02 04:47:00,48.7,35.0,29.99,NNE,14,1.0,5.0,60,0.00,,,0.00,0,weatherlink.com 1.10,2013-03-02 09:47:00,
2013-03-02 05:02:00,48.7,35.0,30.00,NE,36,2.0,5.0,59,0.00,,,0.00,0,weatherlink.com 1.10,2013-03-02 10:02:00,
2013-03-02 05:17:00,48.9,34.0,30.00,West,272,2.0,7.0,58,0.00,,,0.00,0,weatherlink.com 1.10,2013-03-02 10:17:00,
2013-03-02 05:32:00,49.1,34.0,29.99,NNW,346,0.0,10.0,56,0.00,,,0.00,0,weatherlink.com 1.10,2013-03-02 10:32:00,
2013-03-02 05:47:00,48.6,33.0,29.99,North,355,1.0,7.0,56,0.00,,,0.00,0,weatherlink.com 1.10,2013-03-02 10:47:00,
2013-03-02 06:02:00,48.3,33.0,29.98,North,349,0.0,3.0,57,0.00,,,0.00,0,weatherlink.com 1.10,2013-03-02 11:02:00,
2013-03-02 06:17:00,47.8,33.0,29.98,NNW,330,0.0,3.0,58,0.00,,,0.00,0,weatherlink.com 1.10,2013-03-02 11:17:00,
2013-03-02 06:32:00,47.2,33.0,29.99,NNW,346,0.0,3.0,59,0.00,,,0.00,0,weatherlink.com 1.10,2013-03-02 11:32:00,
2013-03-02 06:47:00,46.7,34.0,29.99,North,355,0.0,2.0,61,0.00,,,0.00,0,weatherlink.com 1.10,2013-03-02 11:47:00,
2013-03-02 07:02:00,46.3,34.0,29.99,NNE,17,0.0,3.0,62,0.00,,,0.00,12,weatherlink.com 1.10,2013-03-02 12:02:00,
2013-03-02 07:17:00,46.1,34.0,29.99,NNW,328,0.0,5.0,62,0.00,,,0.00,25,weatherlink.com 1.10,2013-03-02 12:17:00,
2013-03-02 07:32:00,46.4,34.0,30.00,NNW,342,0.0,2.0,62,0.00,,,0.00,39,weatherlink.com 1.10,2013-03-02 12:32:00,
2013-03-02 07:47:00,46.7,34.0,30.00,NNW,327,0.0,2.0,61,0.00,,,0.00,86,weatherlink.com 1.10,2013-03-02 12:47:00,
2013-03-02 08:02:00,47.6,34.0,30.00,NNW,337,0.0,4.0,59,0.00,,,0.00,160,weatherlink.com 1.10,2013-03-02 13:02:00,
2013-03-02 08:17:00,49.2,33.0,30.00,NNW,331,3.0,7.0,55,0.00,,,0.00,338,weatherlink.com 1.10,2013-03-02 13:17:00,
2013-03-02 08:32:00,50.4,33.0,30.01,NW,325,3.0,6.0,52,0.00,,,0.00,316,weatherlink.com 1.10,2013-03-02 13:32:00,
2013-03-02 08:47:00,50.5,33.0,30.02,North,5,0.0,5.0,51,0.00,,,0.00,84,weatherlink.com 1.10,2013-03-02 13:47:00,
2013-03-02 09:02:00,51.3,32.0,30.01,WNW,294,0.0,4.0,48,0.00,,,0.00,287,weatherlink.com 1.10,2013-03-02 14:02:00,
2013-03-02 09:17:00,51.4,33.0,30.01,NNW,336,0.0,4.0,50,0.00,,,0.00,485,weatherlink.com 1.10,2013-03-02 14:17:00,
2013-03-02 09:32:00,51.7,33.0,30.01,West,261,0.0,4.0,49,0.00,,,0.00,223,weatherlink.com 1.10,2013-03-02 14:32:00,
2013-03-02 09:47:00,52.1,34.0,30.01,NW,310,0.0,2.0,50,0.00,,,0.00,339,weatherlink.com 1.10,2013-03-02 14:47:00,
2013-03-02 10:02:00,52.5,34.0,30.01,NNW,331,0.0,5.0,49,0.00,,,0.00,302,weatherlink.com 1.10,2013-03-02 15:02:00,
2013-03-02 10:17:00,52.3,33.0,30.01,West,280,0.0,5.0,49,0.00,,,0.00,229,weatherlink.com 1.10,2013-03-02 15:17:00,
2013-03-02 10:32:00,53.0,34.0,30.00,West,279,2.0,5.0,49,0.00,,,0.00,369,weatherlink.com 1.10,2013-03-02 15:32:00,
2013-03-02 10:47:00,53.6,36.0,30.01,West,270,1.0,8.0,52,0.00,,,0.00,329,weatherlink.com 1.10,2013-03-02 15:47:00,
2013-03-02 11:02:00,53.7,37.0,30.01,NNW,336,5.0,9.0,53,0.00,,,0.00,443,weatherlink.com 1.10,2013-03-02 16:02:00,
2013-03-02 11:17:00,54.5,36.0,30.02,SSW,209,4.0,11.0,50,0.00,,,0.00,868,weatherlink.com 1.10,2013-03-02 16:17:00,
2013-03-02 11:32:00,55.0,37.0,30.02,NW,310,4.0,11.0,52,0.00,,,0.00,821,weatherlink.com 1.10,2013-03-02 16:32:00,
2013-03-02 11:47:00,55.9,37.0,30.01,WSW,247,3.0,10.0,50,0.00,,,0.00,923,weatherlink.com 1.10,2013-03-02 16:47:00,
2013-03-02 12:03:00,57.4,38.0,30.00,West,281,3.0,9.0,49,0.00,,,0.00,1072,weatherlink.com 1.10,2013-03-02 17:03:00,
2013-03-02 12:18:00,56.3,38.0,30.00,WSW,242,7.0,8.0,51,0.00,,,0.00,320,weatherlink.com 1.10,2013-03-02 17:18:00,
2013-03-02 12:33:00,55.8,37.0,30.00,WNW,282,5.0,16.0,49,0.00,,,0.00,385,weatherlink.com 1.10,2013-03-02 17:33:00,
2013-03-02 12:48:00,56.5,36.0,29.99,WSW,248,4.0,14.0,47,0.00,,,0.00,392,weatherlink.com 1.10,2013-03-02 17:48:00,
2013-03-02 13:03:00,57.1,35.0,29.98,WSW,252,6.0,18.0,43,0.00,,,0.00,315,weatherlink.com 1.10,2013-03-02 18:03:00,
2013-03-02 13:18:00,56.8,34.0,29.97,WSW,254,5.0,14.0,43,0.00,,,0.00,976,weatherlink.com 1.10,2013-03-02 18:18:00,
2013-03-02 13:33:00,58.4,33.0,29.96,WSW,249,7.0,19.0,38,0.00,,,0.00,694,weatherlink.com 1.10,2013-03-02 18:33:00,
2013-03-02 13:48:00,58.4,29.0,29.95,SW,221,0.0,15.0,33,0.00,,,0.00,506,weatherlink.com 1.10,2013-03-02 18:48:00,
2013-03-02 14:03:00,59.0,30.0,29.95,WNW,292,3.0,21.0,33,0.00,,,0.00,1002,weatherlink.com 1.10,2013-03-02 19:03:00,
2013-03-02 14:18:00,58.8,30.0,29.94,NNW,333,5.0,16.0,34,0.00,,,0.00,879,weatherlink.com 1.10,2013-03-02 19:18:00,
2013-03-02 14:33:00,58.8,28.0,29.94,WNW,293,8.0,14.0,31,0.00,,,0.00,847,weatherlink.com 1.10,2013-03-02 19:33:00,
2013-03-02 14:48:00,59.0,30.0,29.94,WSW,252,5.0,20.0,33,0.00,,,0.00,691,weatherlink.com 1.10,2013-03-02 19:48:00,
2013-03-02 15:03:00,59.0,32.0,29.93,West,261,8.0,11.0,36,0.00,,,0.00,666,weatherlink.com 1.10,2013-03-02 20:03:00,
2013-03-02 15:18:00,58.7,30.0,29.93,West,268,5.0,13.0,34,0.00,,,0.00,615,weatherlink.com 1.10,2013-03-02 20:18:00,
2013-03-02 15:33:00,57.8,30.0,29.93,WNW,300,6.0,14.0,35,0.00,,,0.00,608,weatherlink.com 1.10,2013-03-02 20:33:00,
2013-03-02 15:48:00,58.1,31.0,29.93,WSW,249,9.0,12.0,36,0.00,,,0.00,559,weatherlink.com 1.10,2013-03-02 20:48:00,
2013-03-02 16:03:00,57.6,30.0,29.93,WNW,288,5.0,16.0,35,0.00,,,0.00,512,weatherlink.com 1.10,2013-03-02 21:03:00,
2013-03-02 16:18:00,57.0,29.0,29.93,WNW,284,8.0,20.0,35,0.00,,,0.00,455,weatherlink.com 1.10,2013-03-02 21:18:00,
2013-03-02 16:33:00,56.7,30.0,29.94,WSW,256,7.0,13.0,37,0.00,,,0.00,364,weatherlink.com 1.10,2013-03-02 21:33:00,
2013-03-02 16:48:00,56.1,31.0,29.94,WNW,293,2.0,15.0,38,0.00,,,0.00,346,weatherlink.com 1.10,2013-03-02 21:48:00,
2013-03-02 17:03:00,55.5,31.0,29.95,SW,233,3.0,18.0,39,0.00,,,0.00,295,weatherlink.com 1.10,2013-03-02 22:03:00,
2013-03-02 17:18:00,55.1,31.0,29.95,WSW,241,3.0,14.0,40,0.00,,,0.00,211,weatherlink.com 1.10,2013-03-02 22:18:00,
2013-03-02 17:33:00,53.8,32.0,29.95,West,277,0.0,19.0,44,0.00,,,0.00,155,weatherlink.com 1.10,2013-03-02 22:33:00,
2013-03-02 17:48:00,53.8,32.0,29.96,WSW,238,11.0,17.0,44,0.00,,,0.00,98,weatherlink.com 1.10,2013-03-02 22:48:00,
2013-03-02 18:03:00,53.2,33.0,29.96,NW,304,4.0,12.0,46,0.00,,,0.00,51,weatherlink.com 1.10,2013-03-02 23:03:00,
2013-03-02 18:18:00,52.5,33.0,29.96,NW,310,5.0,10.0,48,0.00,,,0.00,14,weatherlink.com 1.10,2013-03-02 23:18:00,
2013-03-02 18:33:00,52.1,32.0,29.96,West,269,0.0,11.0,47,0.00,,,0.00,0,weatherlink.com 1.10,2013-03-02 23:33:00,
2013-03-02 18:48:00,51.8,32.0,29.97,West,266,4.0,11.0,47,0.00,,,0.00,0,weatherlink.com 1.10,2013-03-02 23:48:00,
2013-03-02 19:03:00,51.4,32.0,29.97,West,279,3.0,15.0,47,0.00,,,0.00,0,weatherlink.com 1.10,2013-03-03 00:03:00,
2013-03-02 19:18:00,51.2,33.0,29.97,WSW,244,0.0,6.0,50,0.00,,,0.00,0,weatherlink.com 1.10,2013-03-03 00:18:00,
2013-03-02 19:33:00,50.8,34.0,29.98,West,263,0.0,2.0,52,0.00,,,0.00,0,weatherlink.com 1.10,2013-03-03 00:33:00,
2013-03-02 19:48:00,50.6,33.0,29.98,NW,307,0.0,5.0,51,0.00,,,0.00,0,weatherlink.com 1.10,2013-03-03 00:48:00,
2013-03-02 20:03:00,50.6,32.0,29.98,NNW,327,0.0,6.0,50,0.00,,,0.00,0,weatherlink.com 1.10,2013-03-03 01:03:00,
2013-03-02 20:18:00,50.3,32.0,29.98,WSW,252,6.0,9.0,50,0.00,,,0.00,0,weatherlink.com 1.10,2013-03-03 01:18:00,
2013-03-02 20:48:00,49.8,33.0,29.99,WNW,294,2.0,5.0,52,0.00,,,0.00,0,weatherlink.com 1.10,2013-03-03 01:48:00,
2013-03-02 21:03:00,49.7,33.0,29.99,West,261,0.0,7.0,53,0.00,,,0.00,0,weatherlink.com 1.10,2013-03-03 02:03:00,
2013-03-02 21:18:00,49.5,33.0,29.99,West,281,1.0,7.0,53,0.00,,,0.00,0,weatherlink.com 1.10,2013-03-03 02:18:00,
2013-03-02 21:33:00,49.2,33.0,29.99,WSW,248,0.0,5.0,55,0.00,,,0.00,0,weatherlink.com 1.10,2013-03-03 02:33:00,
2013-03-02 21:48:00,48.7,34.0,29.99,West,264,1.0,2.0,57,0.00,,,0.00,0,weatherlink.com 1.10,2013-03-03 02:48:00,
2013-03-02 22:03:00,48.4,34.0,29.99,NW,322,0.0,1.0,58,0.00,,,0.00,0,weatherlink.com 1.10,2013-03-03 03:03:00,
2013-03-02 22:18:00,48.1,34.0,29.99,WSW,248,0.0,3.0,59,0.00,,,0.00,0,weatherlink.com 1.10,2013-03-03 03:18:00,
2013-03-02 22:33:00,47.5,34.0,29.98,WNW,288,0.0,3.0,60,0.00,,,0.00,0,weatherlink.com 1.10,2013-03-03 03:33:00,
2013-03-02 22:48:00,47.2,34.0,29.98,North,11,1.0,3.0,60,0.00,,,0.00,0,weatherlink.com 1.10,2013-03-03 03:48:00,
2013-03-02 23:03:00,46.8,33.0,29.98,North,355,1.0,2.0,60,0.00,,,0.00,0,weatherlink.com 1.10,2013-03-03 04:03:00,
2013-03-02 23:18:00,46.3,33.0,29.98,North,350,0.0,1.0,61,0.00,,,0.00,0,weatherlink.com 1.10,2013-03-03 04:18:00,
2013-03-02 23:33:00,45.4,33.0,29.98,North,355,0.0,1.0,63,0.00,,,0.00,0,weatherlink.com 1.10,2013-03-03 04:33:00,
2013-03-02 23:48:00,45.4,32.0,29.99,NNW,346,3.0,13.0,61,0.00,,,0.00,0,weatherlink.com 1.10,2013-03-03 04:48:00,